ANA331 ROAH-RJOO

Flight info

Callsign ANA331
Flight time 1h 34m
Altitude 41000
Route AMAMI Y53 MADOG Y753 IZUMI
Aircraft B772/H-SDE2E3FGHIJ5LORVWXY/LB1D1

Departure

Time 2026-04-29 00:45
Airport Naha International Airport (ROAH)

Arrival

Time 2026-04-29 02:20
Airport Osaka Itami International Airport (RJOO)
Time Latitude Longitude Altitude Speed Heading
2026-04-28 23:53 26.20717 127.64848 30 ft 0 kts 49°
2026-04-29 00:37 26.20710 127.64838 31 ft 2 kts 49°
2026-04-29 00:37 26.20700 127.64826 30 ft 2 kts 49°
2026-04-29 00:37 26.20694 127.64818 31 ft 2 kts 47°
2026-04-29 00:37 26.20683 127.64807 31 ft 2 kts 33°
2026-04-29 00:38 26.20670 127.64799 31 ft 2 kts 22°
2026-04-29 00:38 26.20656 127.64793 31 ft 2 kts 12°
2026-04-29 00:38 26.20641 127.64791 31 ft 2 kts
2026-04-29 00:38 26.20633 127.64791 30 ft 1 kts 355°
2026-04-29 00:39 26.20632 127.64791 30 ft 0 kts 355°
2026-04-29 00:42 26.20633 127.64791 30 ft 0 kts 355°
2026-04-29 00:42 26.20647 127.64790 30 ft 4 kts 355°
2026-04-29 00:42 26.20695 127.64780 30 ft 8 kts 342°
2026-04-29 00:42 26.20754 127.64759 30 ft 9 kts 343°
2026-04-29 00:43 26.20826 127.64736 30 ft 11 kts 351°
2026-04-29 00:43 26.20909 127.64731 30 ft 12 kts 358°
2026-04-29 00:43 26.20974 127.64696 31 ft 11 kts 289°
2026-04-29 00:43 26.20979 127.64605 30 ft 12 kts 258°
2026-04-29 00:44 26.20929 127.64531 30 ft 10 kts 204°
2026-04-29 00:44 26.20904 127.64526 30 ft 1 kts 178°
2026-04-29 00:44 26.20877 127.64527 30 ft 17 kts 178°
2026-04-29 00:44 26.20507 127.64546 30 ft 91 kts 175°
2026-04-29 00:45 26.19637 127.64587 41 ft 152 kts 174°
2026-04-29 00:45 26.18510 127.64638 452 ft 166 kts 175°
2026-04-29 00:45 26.17355 127.64699 1254 ft 172 kts 174°
2026-04-29 00:45 26.16240 127.64776 1775 ft 160 kts 175°
2026-04-29 00:46 26.15037 127.64850 1780 ft 182 kts 175°
2026-04-29 00:46 26.13728 127.64929 2005 ft 194 kts 175°
2026-04-29 00:46 26.12321 127.64999 2186 ft 211 kts 177°
2026-04-29 00:46 26.10785 127.65063 2409 ft 228 kts 178°
2026-04-29 00:47 26.09142 127.65130 2641 ft 246 kts 178°
2026-04-29 00:47 26.07367 127.65202 3031 ft 257 kts 179°
2026-04-29 00:47 26.05579 127.65275 3681 ft 258 kts 179°
2026-04-29 00:47 26.03799 127.65514 4229 ft 263 kts 163°
2026-04-29 00:48 26.02217 127.66556 4722 ft 272 kts 137°
2026-04-29 00:48 26.01200 127.68365 5240 ft 281 kts 109°
2026-04-29 00:48 26.00978 127.70534 5790 ft 286 kts 90°
2026-04-29 00:48 26.01081 127.72716 6369 ft 289 kts 83°
2026-04-29 00:49 26.01768 127.74846 6805 ft 296 kts 58°
2026-04-29 00:49 26.02968 127.76674 7377 ft 297 kts 51°
2026-04-29 00:49 26.04275 127.78451 7944 ft 299 kts 50°
2026-04-29 00:49 26.05615 127.80266 8427 ft 304 kts 50°
2026-04-29 00:50 26.06960 127.82098 8958 ft 308 kts 50°
2026-04-29 00:50 26.08318 127.83955 9434 ft 313 kts 50°
2026-04-29 00:50 26.09693 127.85838 9987 ft 315 kts 50°
2026-04-29 00:50 26.11080 127.87740 10353 ft 325 kts 50°
2026-04-29 00:51 26.12538 127.89737 10530 ft 342 kts 50°
2026-04-29 00:51 26.14083 127.91857 10751 ft 359 kts 50°
2026-04-29 00:51 26.15675 127.94038 11011 ft 374 kts 49°
2026-04-29 00:51 26.17581 127.96125 11254 ft 390 kts 37°
2026-04-29 00:52 26.19840 127.97841 11645 ft 400 kts 31°
2026-04-29 00:52 26.22210 127.99489 12291 ft 405 kts 31°
2026-04-29 00:52 26.24635 128.01172 12991 ft 410 kts 31°
2026-04-29 00:52 26.27049 128.02853 13721 ft 415 kts 31°
2026-04-29 00:53 26.29519 128.04576 14547 ft 418 kts 31°
2026-04-29 00:53 26.31970 128.06288 15409 ft 420 kts 31°
2026-04-29 00:53 26.34440 128.08015 16213 ft 425 kts 31°
2026-04-29 00:53 26.36958 128.09778 16915 ft 430 kts 31°
2026-04-29 00:54 26.39512 128.11566 17621 ft 434 kts 30°
2026-04-29 00:54 26.42056 128.13350 18316 ft 437 kts 30°
2026-04-29 00:54 26.44641 128.15163 18929 ft 443 kts 30°
2026-04-29 00:54 26.47264 128.17004 19527 ft 447 kts 30°
2026-04-29 00:55 26.49931 128.18877 20112 ft 452 kts 30°
2026-04-29 00:55 26.52567 128.20729 20693 ft 456 kts 30°
2026-04-29 00:55 26.55264 128.22627 21269 ft 460 kts 30°
2026-04-29 00:55 26.57994 128.24547 21785 ft 465 kts 30°
2026-04-29 00:56 26.60739 128.26480 22301 ft 470 kts 30°
2026-04-29 00:56 26.63520 128.28439 22872 ft 473 kts 30°
2026-04-29 00:56 26.66307 128.30403 23428 ft 476 kts 30°
2026-04-29 00:56 26.69129 128.32394 23956 ft 480 kts 30°
2026-04-29 00:57 26.71965 128.34395 24437 ft 484 kts 30°
2026-04-29 00:57 26.74813 128.36406 24949 ft 489 kts 30°
2026-04-29 00:57 26.77683 128.38435 25506 ft 491 kts 30°
2026-04-29 00:57 26.80570 128.40475 26087 ft 493 kts 30°
2026-04-29 00:58 26.83485 128.42539 26602 ft 497 kts 30°
2026-04-29 00:58 26.86413 128.44611 27080 ft 501 kts 30°
2026-04-29 00:58 26.89372 128.46707 27558 ft 505 kts 30°
2026-04-29 00:58 26.92350 128.48817 28068 ft 509 kts 30°
2026-04-29 00:59 26.95336 128.50935 28578 ft 512 kts 30°
2026-04-29 00:59 26.98341 128.53069 29077 ft 515 kts 30°
2026-04-29 00:59 27.01378 128.55225 29654 ft 516 kts 30°
2026-04-29 00:59 27.04418 128.57385 30318 ft 516 kts 30°
2026-04-29 01:00 27.07434 128.59531 31030 ft 514 kts 29°
2026-04-29 01:00 27.10433 128.61665 31766 ft 511 kts 29°
2026-04-29 01:00 27.13446 128.63811 32407 ft 510 kts 29°
2026-04-29 01:00 27.16404 128.65920 33018 ft 509 kts 30°
2026-04-29 01:01 27.19413 128.68063 33623 ft 509 kts 29°
2026-04-29 01:01 27.22408 128.70201 34289 ft 507 kts 29°
2026-04-29 01:01 27.25351 128.72302 35060 ft 503 kts 29°
2026-04-29 01:01 27.28281 128.74396 35865 ft 497 kts 29°
2026-04-29 01:02 27.31187 128.76474 36522 ft 494 kts 29°
2026-04-29 01:02 27.34098 128.78555 37030 ft 492 kts 29°
2026-04-29 01:02 27.36977 128.80615 37489 ft 492 kts 29°
2026-04-29 01:02 27.39884 128.82697 37983 ft 489 kts 29°
2026-04-29 01:03 27.42731 128.84737 38449 ft 487 kts 28°
2026-04-29 01:03 27.45576 128.86775 38828 ft 486 kts 28°
2026-04-29 01:03 27.48425 128.88820 39125 ft 487 kts 28°
2026-04-29 01:03 27.51290 128.90875 39423 ft 487 kts 28°
2026-04-29 01:04 27.54160 128.92937 39724 ft 487 kts 28°
2026-04-29 01:04 27.56981 128.94965 40053 ft 486 kts 28°
2026-04-29 01:04 27.59850 128.97028 40301 ft 486 kts 28°
2026-04-29 01:04 27.62681 128.99065 40522 ft 487 kts 28°
2026-04-29 01:05 27.65555 129.01134 40793 ft 486 kts 28°
2026-04-29 01:05 27.68406 129.03189 41053 ft 486 kts 28°
2026-04-29 01:05 27.71234 129.05228 41059 ft 488 kts 28°
2026-04-29 01:06 27.76965 129.09363 41060 ft 487 kts 28°
2026-04-29 01:06 27.82641 129.13466 41057 ft 486 kts 28°
2026-04-29 01:07 27.88351 129.17596 41057 ft 487 kts 28°
2026-04-29 01:07 27.94038 129.21716 41058 ft 486 kts 28°
2026-04-29 01:08 27.99733 129.25847 41056 ft 488 kts 28°
2026-04-29 01:08 28.05468 129.30013 41059 ft 487 kts 28°
2026-04-29 01:09 28.11145 129.34140 41063 ft 487 kts 28°
2026-04-29 01:09 28.16870 129.38309 41063 ft 488 kts 27°
2026-04-29 01:10 28.22582 129.42474 41060 ft 488 kts 28°
2026-04-29 01:10 28.28330 129.46669 41062 ft 489 kts 27°
2026-04-29 01:11 28.34053 129.50853 41065 ft 488 kts 27°
2026-04-29 01:11 28.39785 129.55049 41066 ft 490 kts 27°
2026-04-29 01:12 28.45486 129.59225 41070 ft 490 kts 27°
2026-04-29 01:12 28.51205 129.63400 41067 ft 490 kts 27°
2026-04-29 01:13 28.56965 129.67609 41058 ft 490 kts 28°
2026-04-29 01:13 28.62724 129.71823 41056 ft 492 kts 27°
2026-04-29 01:14 28.68441 129.76013 41058 ft 491 kts 28°
2026-04-29 01:14 28.74192 129.80232 41055 ft 492 kts 28°
2026-04-29 01:15 28.79964 129.84473 41056 ft 494 kts 28°
2026-04-29 01:15 28.85738 129.88722 41057 ft 491 kts 28°
2026-04-29 01:16 28.91506 129.92970 41055 ft 493 kts 28°
2026-04-29 01:16 28.97233 129.97197 41055 ft 491 kts 27°
2026-04-29 01:17 29.02974 130.01437 41055 ft 493 kts 27°
2026-04-29 01:17 29.08746 130.05707 41055 ft 494 kts 27°
2026-04-29 01:18 29.14511 130.09978 41053 ft 492 kts 28°
2026-04-29 01:18 29.23148 130.16385 41056 ft 494 kts 27°
2026-04-29 01:19 29.28916 130.20674 41056 ft 494 kts 27°
2026-04-29 01:19 29.34704 130.24983 41054 ft 495 kts 27°
2026-04-29 01:20 29.40441 130.29262 41056 ft 495 kts 27°
2026-04-29 01:20 29.46192 130.33556 41058 ft 494 kts 27°
2026-04-29 01:21 29.52005 130.37903 41055 ft 495 kts 27°
2026-04-29 01:21 29.57748 130.42203 41059 ft 495 kts 27°
2026-04-29 01:22 29.63532 130.46541 41055 ft 495 kts 27°
2026-04-29 01:22 29.69305 130.50876 41059 ft 496 kts 27°
2026-04-29 01:23 29.75068 130.55209 41057 ft 496 kts 27°
2026-04-29 01:23 29.80833 130.59551 41054 ft 495 kts 27°
2026-04-29 01:24 29.86603 130.63901 41057 ft 495 kts 27°
2026-04-29 01:24 29.92356 130.68245 41045 ft 496 kts 28°
2026-04-29 01:25 29.98159 130.72633 41035 ft 497 kts 28°
2026-04-29 01:25 30.03944 130.77014 41035 ft 498 kts 28°
2026-04-29 01:26 30.09708 130.81389 41028 ft 498 kts 28°
2026-04-29 01:26 30.15511 130.85800 41032 ft 495 kts 28°
2026-04-29 01:27 30.21237 130.90157 41029 ft 496 kts 28°
2026-04-29 01:27 30.27016 130.94560 41029 ft 496 kts 28°
2026-04-29 01:28 30.32763 130.98946 41031 ft 496 kts 28°
2026-04-29 01:28 30.38499 131.03330 41033 ft 497 kts 28°
2026-04-29 01:29 30.44278 131.07752 41031 ft 498 kts 28°
2026-04-29 01:29 30.50054 131.12183 41039 ft 498 kts 28°
2026-04-29 01:30 30.55835 131.16631 41038 ft 499 kts 28°
2026-04-29 01:30 30.61582 131.21060 41036 ft 498 kts 27°
2026-04-29 01:31 30.67351 131.25511 41035 ft 498 kts 27°
2026-04-29 01:31 30.73116 131.29964 41029 ft 498 kts 27°
2026-04-29 01:32 30.78893 131.34433 41029 ft 500 kts 27°
2026-04-29 01:32 30.84650 131.38896 41027 ft 499 kts 27°
2026-04-29 01:33 30.90411 131.43365 41023 ft 498 kts 27°
2026-04-29 01:33 30.96165 131.47838 41024 ft 498 kts 27°
2026-04-29 01:34 31.01959 131.52348 41022 ft 497 kts 27°
2026-04-29 01:34 31.07676 131.56804 41020 ft 498 kts 27°
2026-04-29 01:35 31.13456 131.61316 41029 ft 500 kts 27°
2026-04-29 01:35 31.19244 131.65842 41018 ft 498 kts 28°
2026-04-29 01:36 31.24995 131.70343 41009 ft 501 kts 27°
2026-04-29 01:36 31.30767 131.74869 41009 ft 500 kts 27°
2026-04-29 01:37 31.36551 131.79405 41009 ft 500 kts 27°
2026-04-29 01:37 31.42330 131.83943 41007 ft 501 kts 27°
2026-04-29 01:38 31.48109 131.88489 41010 ft 502 kts 27°
2026-04-29 01:38 31.53889 131.93042 41008 ft 501 kts 27°
2026-04-29 01:39 31.59676 131.97607 41015 ft 503 kts 27°
2026-04-29 01:39 31.65455 132.02174 41014 ft 501 kts 27°
2026-04-29 01:40 31.71246 132.06757 41018 ft 501 kts 27°
2026-04-29 01:40 31.77015 132.11330 41019 ft 503 kts 27°
2026-04-29 01:41 31.82845 132.15956 41015 ft 502 kts 27°
2026-04-29 01:41 31.88609 132.20540 41024 ft 502 kts 27°
2026-04-29 01:42 31.94393 132.25145 41024 ft 502 kts 27°
2026-04-29 01:42 32.00164 132.29747 41020 ft 501 kts 27°
2026-04-29 01:43 32.05914 132.34340 41021 ft 501 kts 27°
2026-04-29 01:43 32.11486 132.39351 41021 ft 512 kts 38°
2026-04-29 01:44 32.15932 132.46080 41039 ft 525 kts 52°
2026-04-29 01:44 32.19785 132.53372 41026 ft 525 kts 53°
2026-04-29 01:45 32.23615 132.60660 41026 ft 524 kts 53°
2026-04-29 01:45 32.27457 132.67981 41003 ft 525 kts 54°
2026-04-29 01:46 32.31295 132.75307 41017 ft 525 kts 54°
2026-04-29 01:46 32.35110 132.82602 41014 ft 525 kts 53°
2026-04-29 01:47 32.38948 132.89954 41013 ft 525 kts 54°
2026-04-29 01:47 32.42775 132.97299 41008 ft 525 kts 54°
2026-04-29 01:48 32.46611 133.04674 41008 ft 525 kts 53°
2026-04-29 01:48 32.50413 133.11999 41011 ft 528 kts 54°
2026-04-29 01:49 32.54239 133.19386 41010 ft 526 kts 53°
2026-04-29 01:49 32.58071 133.26798 41007 ft 528 kts 53°
2026-04-29 01:50 32.61873 133.34168 41004 ft 525 kts 53°
2026-04-29 01:50 32.65688 133.41577 41005 ft 525 kts 54°
2026-04-29 01:51 32.69420 133.49020 41008 ft 528 kts 54°
2026-04-29 01:51 32.73145 133.56499 41004 ft 528 kts 54°
2026-04-29 01:52 32.76866 133.63980 41010 ft 527 kts 54°
2026-04-29 01:52 32.80599 133.71495 40994 ft 527 kts 55°
2026-04-29 01:53 32.84317 133.78992 40987 ft 528 kts 55°
2026-04-29 01:53 32.88008 133.86450 40998 ft 528 kts 54°
2026-04-29 01:54 32.91722 133.93967 40991 ft 528 kts 55°
2026-04-29 01:54 32.95443 134.01515 40999 ft 529 kts 54°
2026-04-29 01:55 32.99135 134.09021 40996 ft 527 kts 54°
2026-04-29 01:55 33.02837 134.16559 41001 ft 527 kts 54°
2026-04-29 01:56 33.04698 134.20254 40880 ft 521 kts 50°
2026-04-29 01:56 33.06848 134.23695 40032 ft 517 kts 43°
2026-04-29 01:56 33.09325 134.26739 39162 ft 510 kts 34°
2026-04-29 01:56 33.12018 134.29509 38409 ft 507 kts 32°
2026-04-29 01:57 33.14711 134.32222 37712 ft 505 kts 33°
2026-04-29 01:57 33.17380 134.34918 37035 ft 505 kts 33°
2026-04-29 01:57 33.20046 134.37620 36337 ft 505 kts 33°
2026-04-29 01:57 33.22744 134.40361 35600 ft 505 kts 33°
2026-04-29 01:58 33.25393 134.43060 34865 ft 506 kts 33°
2026-04-29 01:58 33.28070 134.45795 34101 ft 508 kts 33°
2026-04-29 01:58 33.30779 134.48560 33281 ft 527 kts 34°
2026-04-29 01:58 33.33606 134.51450 32478 ft 538 kts 34°
2026-04-29 01:59 33.36430 134.54349 31582 ft 541 kts 34°
2026-04-29 01:59 33.39317 134.57317 30676 ft 543 kts 34°
2026-04-29 01:59 33.42142 134.60226 30120 ft 537 kts 35°
2026-04-29 01:59 33.44944 134.63117 29597 ft 531 kts 35°
2026-04-29 02:00 33.47758 134.66019 29011 ft 527 kts 36°
2026-04-29 02:00 33.50509 134.68860 28397 ft 523 kts 36°
2026-04-29 02:00 33.53262 134.71704 27782 ft 519 kts 35°
2026-04-29 02:00 33.55982 134.74516 27171 ft 516 kts 36°
2026-04-29 02:01 33.58690 134.77260 26564 ft 510 kts 32°
2026-04-29 02:01 33.61580 134.79613 25960 ft 501 kts 26°
2026-04-29 02:01 33.64522 134.81790 25339 ft 498 kts 25°
2026-04-29 02:01 33.67466 134.83954 24719 ft 495 kts 25°
2026-04-29 02:02 33.70418 134.86124 24089 ft 493 kts 26°
2026-04-29 02:02 33.73312 134.88254 23472 ft 491 kts 26°
2026-04-29 02:02 33.76192 134.90378 22855 ft 489 kts 26°
2026-04-29 02:02 33.79118 134.92537 22211 ft 488 kts 26°
2026-04-29 02:03 33.81993 134.94661 21575 ft 486 kts 26°
2026-04-29 02:03 33.84834 134.96762 20917 ft 485 kts 26°
2026-04-29 02:03 33.87735 134.98909 20232 ft 485 kts 26°
2026-04-29 02:03 33.90591 135.01024 19538 ft 484 kts 26°
2026-04-29 02:04 33.93445 135.03142 18902 ft 478 kts 26°
2026-04-29 02:04 33.96223 135.05208 18367 ft 468 kts 25°
2026-04-29 02:04 33.98972 135.07250 17544 ft 467 kts 26°
2026-04-29 02:04 34.01723 135.09294 16763 ft 461 kts 25°
2026-04-29 02:05 34.04430 135.11310 16043 ft 453 kts 25°
2026-04-29 02:05 34.07100 135.13298 15347 ft 446 kts 25°
2026-04-29 02:05 34.09679 135.15222 14656 ft 438 kts 25°
2026-04-29 02:05 34.12260 135.17146 13979 ft 431 kts 25°
2026-04-29 02:06 34.14816 135.19054 13284 ft 424 kts 25°
2026-04-29 02:06 34.17297 135.20906 12626 ft 417 kts 26°
2026-04-29 02:06 34.19756 135.22742 11905 ft 411 kts 26°
2026-04-29 02:06 34.22168 135.24545 11241 ft 405 kts 27°
2026-04-29 02:07 34.24486 135.26396 10627 ft 393 kts 30°
2026-04-29 02:07 34.26646 135.28183 10537 ft 363 kts 29°
2026-04-29 02:07 34.28671 135.29860 10485 ft 336 kts 28°
2026-04-29 02:07 34.30555 135.31413 10401 ft 322 kts 28°
2026-04-29 02:08 34.32371 135.32903 10240 ft 314 kts 28°
2026-04-29 02:08 34.34178 135.34383 10081 ft 307 kts 28°
2026-04-29 02:08 34.35909 135.35799 9827 ft 304 kts 28°
2026-04-29 02:08 34.37687 135.37251 9410 ft 307 kts 29°
2026-04-29 02:09 34.39459 135.38704 9013 ft 309 kts 29°
2026-04-29 02:09 34.41239 135.40164 8628 ft 310 kts 29°
2026-04-29 02:09 34.43015 135.41632 8246 ft 311 kts 32°
2026-04-29 02:09 34.44490 135.43544 8078 ft 307 kts 52°
2026-04-29 02:10 34.45625 135.45764 7617 ft 313 kts 58°
2026-04-29 02:10 34.46683 135.48055 7334 ft 309 kts 59°
2026-04-29 02:10 34.47721 135.50328 7066 ft 306 kts 58°
2026-04-29 02:10 34.48760 135.52596 6717 ft 304 kts 58°
2026-04-29 02:11 34.49757 135.54770 6717 ft 290 kts 58°
2026-04-29 02:11 34.50733 135.56897 6567 ft 283 kts 58°
2026-04-29 02:11 34.51680 135.58958 6291 ft 282 kts 58°
2026-04-29 02:11 34.52618 135.61002 6183 ft 273 kts 57°
2026-04-29 02:12 34.53537 135.62981 6173 ft 259 kts 53°
2026-04-29 02:12 34.54757 135.64479 6029 ft 246 kts 25°
2026-04-29 02:12 34.56325 135.65157 5689 ft 241 kts
2026-04-29 02:12 34.57996 135.65361 5303 ft 241 kts 359°
2026-04-29 02:13 34.59674 135.65317 4919 ft 238 kts 343°
2026-04-29 02:13 34.61111 135.64424 4545 ft 232 kts 318°
2026-04-29 02:13 34.62259 135.63101 4245 ft 220 kts 315°
2026-04-29 02:13 34.63301 135.61856 3952 ft 201 kts 316°
2026-04-29 02:14 34.64256 135.60727 3695 ft 186 kts 316°
2026-04-29 02:14 34.65134 135.59685 3455 ft 177 kts 316°
2026-04-29 02:14 34.66025 135.58621 3263 ft 176 kts 317°
2026-04-29 02:14 34.66893 135.57581 3008 ft 171 kts 317°
2026-04-29 02:15 34.67710 135.56602 2766 ft 161 kts 317°
2026-04-29 02:15 34.68490 135.55670 2537 ft 152 kts 317°
2026-04-29 02:15 34.69228 135.54787 2326 ft 150 kts 317°
2026-04-29 02:15 34.69976 135.53886 2103 ft 150 kts 318°
2026-04-29 02:16 34.70711 135.53006 1886 ft 149 kts 318°
2026-04-29 02:16 34.71414 135.52159 1690 ft 133 kts 319°
2026-04-29 02:16 34.72046 135.51404 1505 ft 126 kts 319°
2026-04-29 02:16 34.72678 135.50642 1325 ft 128 kts 319°
2026-04-29 02:17 34.73312 135.49881 1141 ft 128 kts 319°
2026-04-29 02:17 34.73951 135.49109 958 ft 128 kts 319°
2026-04-29 02:17 34.74585 135.48341 801 ft 129 kts 318°
2026-04-29 02:17 34.75000 135.47853 679 ft 129 kts 319°
2026-04-29 02:18 34.75236 135.47584 619 ft 128 kts 318°
2026-04-29 02:18 34.75865 135.46803 437 ft 128 kts 317°
2026-04-29 02:19 34.76499 135.46050 259 ft 128 kts 317°
2026-04-29 02:19 34.77134 135.45283 99 ft 128 kts 317°
2026-04-29 02:19 34.77740 135.44560 41 ft 105 kts 315°
2026-04-29 02:19 34.78170 135.44038 47 ft 69 kts 316°
2026-04-29 02:20 34.78423 135.43759 49 ft 31 kts 328°
2026-04-29 02:20 34.78602 135.43698 50 ft 25 kts 354°
2026-04-29 02:20 34.78746 135.43741 52 ft 18 kts 36°
2026-04-29 02:20 34.78838 135.43849 52 ft 18 kts 46°
2026-04-29 02:21 34.78881 135.43926 53 ft 8 kts 92°
2026-04-29 02:21 34.78852 135.43994 52 ft 10 kts 135°
2026-04-29 02:21 34.78791 135.44067 52 ft 13 kts 135°
2026-04-29 02:21 34.78757 135.44132 52 ft 7 kts 83°
2026-04-29 02:22 34.78792 135.44174 53 ft 7 kts 27°
2026-04-29 02:22 34.78839 135.44203 54 ft 3 kts 27°
2026-04-29 02:22 34.78859 135.44215 55 ft 1 kts 26°
2026-04-29 02:22 34.78865 135.44218 55 ft 0 kts 25°
2026-04-29 02:23 34.78866 135.44220 55 ft 0 kts 25°